Weather History for PAHO - January, 2013

Change the Weather History Date:

Tuesday, January 22, 2013

  Actual Average Record
Temperature  
Mean Temperature 40 °F -  
Max Temperature 44 °F 30 °F 50 °F (2014)
Min Temperature 34 °F 19 °F -10 °F (1971)
Degree Days  
Heating Degree Days 25    
Moisture  
Dew Point 32 °F    
Average Humidity 70    
Maximum Humidity 85    
Minimum Humidity 60    
Precipitation  
Precipitation 0.00 in - - ()
Sea Level Pressure  
Sea Level Pressure 29.45 in    
Wind  
Wind Speed 6 mph (NNE)    
Max Wind Speed 13 mph    
Max Gust Speed -    
Visibility 10 miles    
Events      
Averages and records for this station are not official NWS values.
T = Trace of Precipitation, MM = Missing Value Source: NWS Daily Summary

Daily Weather History Graph

Daily Weather History Graph

Search for Another Location

Airport or City:

Trip Planner

Search our weather history database for the weather conditions in past years. The results will help you decide how hot, cold, wet, or windy it might be!

Date:

Astronomy

Jan. 22, 2013 Rise Set
Actual Time 9:37 AM AKST 4:58 PM AKST
Civil Twilight 8:48 AM AKST 5:47 PM AKST
Nautical Twilight 7:56 AM AKST 6:39 PM AKST
Astronomical Twilight 7:07 AM AKST 7:28 PM AKST
Moon 1:14 PM AKST (1/22) 6:21 AM AKST (1/22)
Length of Visible Light 8h 59m
Length of Day
7h 20m
Waxing Gibbous, 84% of the Moon is Illuminated
Jan 22
Waxing Gibbous
Jan 26
Full
Feb 3
Last Quarter
Feb 9
New
Feb 17
First Quarter

Hourly Weather History & Observations

Time (AKST) Temp. Windchill Dew Point Humidity Pressure Visibility Wind Dir Wind Speed Gust Speed Precip Events Conditions
12:53 AM 43.0 °F 40.3 °F 32.0 °F 65% 29.55 in 10.0 mi Variable 4.6 mph - N/A   Partly Cloudy
1:53 AM 44.1 °F 38.1 °F 32.0 °F 63% 29.55 in 10.0 mi NE 11.5 mph - N/A   Overcast
2:53 AM 41.0 °F 35.8 °F 32.0 °F 70% 29.52 in 10.0 mi NE 8.1 mph - N/A   Overcast
3:53 AM 44.1 °F 37.7 °F 32.0 °F 63% 29.52 in 10.0 mi ENE 12.7 mph - N/A   Overcast
4:53 AM 42.1 °F 37.7 °F 32.0 °F 67% 29.51 in 10.0 mi ENE 6.9 mph - N/A   Overcast
5:53 AM 43.0 °F 40.3 °F 30.9 °F 62% 29.50 in 10.0 mi NNE 4.6 mph - N/A   Overcast
6:53 AM 41.0 °F 37.1 °F 30.9 °F 67% 29.49 in 10.0 mi ENE 5.8 mph - N/A   Overcast
7:53 AM 43.0 °F 37.7 °F 30.0 °F 60% 29.48 in 10.0 mi North 9.2 mph - N/A   Overcast
8:53 AM 42.1 °F 38.4 °F 30.9 °F 65% 29.49 in 10.0 mi ENE 5.8 mph - N/A   Mostly Cloudy
9:53 AM 39.9 °F 36.7 °F 32.0 °F 73% 29.48 in 10.0 mi NNE 4.6 mph - N/A   Partly Cloudy
10:53 AM 42.1 °F 37.7 °F 30.9 °F 65% 29.48 in 10.0 mi NE 6.9 mph - N/A   Mostly Cloudy
11:53 AM 41.0 °F 39.0 °F 32.0 °F 70% 29.47 in 10.0 mi NNE 3.5 mph - N/A   Scattered Clouds
12:53 PM 42.1 °F 38.4 °F 32.0 °F 67% 29.46 in 10.0 mi North 5.8 mph - N/A   Mostly Cloudy
1:53 PM 42.1 °F 39.2 °F 32.0 °F 67% 29.43 in 10.0 mi NE 4.6 mph - N/A   Overcast
2:53 PM 42.1 °F - 30.9 °F 65% 29.41 in 10.0 mi Calm Calm - N/A   Overcast
3:53 PM 41.0 °F - 32.0 °F 70% 29.40 in 10.0 mi Calm Calm - N/A   Overcast
4:53 PM 39.0 °F 34.8 °F 33.1 °F 79% 29.38 in 10.0 mi SW 5.8 mph - N/A   Overcast
5:53 PM 39.9 °F 36.7 °F 32.0 °F 73% 29.38 in 10.0 mi West 4.6 mph - N/A   Overcast
6:53 PM 39.0 °F 35.7 °F 32.0 °F 76% 29.37 in 10.0 mi WSW 4.6 mph - N/A   Overcast
7:53 PM 39.0 °F 35.7 °F 32.0 °F 76% 29.37 in 10.0 mi WSW 4.6 mph - N/A   Mostly Cloudy
8:53 PM 37.9 °F 35.5 °F 32.0 °F 79% 29.36 in 10.0 mi WSW 3.5 mph - N/A   Overcast
9:53 PM 37.9 °F - 32.0 °F 79% 29.36 in 10.0 mi Calm Calm - N/A   Overcast
10:53 PM 36.0 °F - 30.9 °F 82% 29.36 in 10.0 mi Calm Calm - N/A   Overcast
11:53 PM 34.0 °F 28.8 °F 30.0 °F 85% 29.36 in 10.0 mi ENE 5.8 mph - N/A   Overcast